Regional Weather Roundup
Issued by NWS

Home | Current Version | Previous Version | Graphics & Text | Print | Product List | Glossary On
Versions: 1 2 3 4 5 6 7 8 9 10 11 12 13 14 15 16 17 18 19 20 21 22 23 24 25 26 27 28 29 30 31 32 33 34 35 36 37 38 39 40 41 42 43 44 45 46 47 48 49 50
000
ASUS43 KOAX 250402
RWRNE

WEATHER ROUNDUP FOR NEBRASKA
NATIONAL WEATHER SERVICE OMAHA NE
1100 PM CDT FRI APR 24 2015

NOTES: SATELLITE DATA IS BEING USED TO AUGMENT CLOUD COVER ABOVE
       12000 FEET.
       "FAIR" INDICATES FEW OR NO CLOUDS BELOW 12,000 FEET WITH NO
       SIGNIFICANT WEATHER AND/OR OBSTRUCTIONS TO VISIBILITY.

  * THESE STATIONS DO NOT REPORT WEATHER SUCH AS RAIN...SNOW OR FOG.

NEZ001>004-019>022-054>056-250500-
NEBRASKA PANHANDLE

CITY           SKY/WX    TMP DP  RH WIND       PRES   REMARKS
SCOTTSBLUFF    CLOUDY    50  43  77 N7        29.61R
ALLIANCE       PTCLDY    49  43  80 N14       29.61S
CHADRON        MOCLDY    46  41  82 W8        29.62R
KIMBALL        CLOUDY    48  40  73 W12       29.64R
SIDNEY         CLOUDY    53  37  54 NW12      29.60R
$$

NEZ057>060-069>072-079>082-250500-
SOUTHWEST NEBRASKA

CITY           SKY/WX    TMP DP  RH WIND       PRES   REMARKS
IMPERIAL       CLOUDY    55  42  61 NW13      29.54F
MCCOOK         CLOUDY    59  55  87 E8        29.52R
$$

NEZ005>010-023>029-035>040-094-250500-
NORTH CENTRAL NEBRASKA

CITY           SKY/WX    TMP DP  RH WIND       PRES   REMARKS
VALENTINE      CLOUDY    58  46  64 N18G25    29.53F
AINSWORTH      CLOUDY    63  45  51 NW18G28   29.54R
BROKEN BOW     CLOUDY    55  45  68 S6        29.53F
ORD            CLOUDY    57  45  64 S10       29.50F
$$

NEZ041-046>049-061>064-073>077-083>087-250500-
SOUTH CENTRAL NEBRASKA

CITY           SKY/WX    TMP DP  RH WIND       PRES   REMARKS
GRAND ISLAND   CLOUDY    57  53  86 E6        29.54S
AURORA         CLOUDY    57  55  92 E6        29.52F
HASTINGS       CLOUDY    57  54  89 NE6       29.52F FOG
KEARNEY *      CLOUDY    57  54  88 E9        29.55R
YORK           CLOUDY    57  55  94 E5        29.52F
$$

NEZ011>018-030>034-042>045-250500-
NORTHEAST NEBRASKA

CITY           SKY/WX    TMP DP  RH WIND       PRES   REMARKS
NORFOLK        CLOUDY    61  53  75 SE12      29.55S
BLAIR          CLOUDY    56  51  84 E8        29.56F
COLUMBUS *     CLOUDY    57  50  77 SE12      29.57S
TEKAMAH        CLOUDY    59  52  77 E12       29.58R
$$

NEZ050>053-065>068-078-088>093-250500-
SOUTHEAST NEBRASKA

CITY           SKY/WX    TMP DP  RH WIND       PRES   REMARKS
LINCOLN        CLOUDY    58  54  86 SE13      29.52F
OMAHA EPPLEY   CLOUDY    58  53  84 E12       29.56S
FALLS CITY     CLOUDY    59  53  80 E15       29.50F
PLATTSMOUTH    CLOUDY    56  52  86 E12       29.54F
$$

NEZ044-045-051>053-067-250500-
OMAHA AREA

CITY           SKY/WX    TMP DP  RH WIND       PRES   REMARKS
OMAHA EPPLEY   CLOUDY    58  53  84 E12       29.56S
BLAIR          CLOUDY    56  51  84 E8        29.56F
OFFUTT AFB     CLOUDY    57  53  86 E8        29.54F
PLATTSMOUTH    CLOUDY    56  52  86 E12       29.54F
$$


USA.gov is the U.S. government's official web portal to all federal, state and local government web resources and services.